When you browse on this site, cookies collect data to enhance your experience and personalize the content and advertising you see.
Visit our Privacy Policy to learn more. By continuing to use the site, you agree to this use of cookies and data.
  • In Czech Republic
  • List of Countries
  • For 7 days
  • Water Temperature
  • Weather Map
  • Weather Widgets
  • user-avatar
    Login

    Hourly Weather Dori

    Today, 22 August, Thursday

    Time Temperature Precipitation Wind Pressure Humidity
    00:00 +30°C° 0 mm 6 mps 734 mmHg 64%
    01:00 +30°C° 0 mm 6 mps 733 mmHg 65%
    02:00 +30°C° 0 mm 5 mps 733 mmHg 66%
    03:00 +29°C° 0 mm 5 mps 733 mmHg 67%
    04:00 +29°C° 0 mm 5 mps 733 mmHg 68%
    05:00 +29°C° 0 mm 5 mps 734 mmHg 69%
    06:00 +29°C° 0 mm 5 mps 734 mmHg 71%
    07:00 +29°C° 0.7 mm 5 mps 734 mmHg 70%
    08:00 +30°C° 0.7 mm 5 mps 735 mmHg 69%
    09:00 +30°C° 0.7 mm 6 mps 735 mmHg 68%
    10:00 +29°C° 3.5 mm 4 mps 735 mmHg 73%
    11:00 +27°C° 3.5 mm 3 mps 735 mmHg 78%
    12:00 +27°C° 0 mm 3 mps 734 mmHg 80%
    13:00 +28°C° 0.5 mm 4 mps 734 mmHg 73%
    14:00 +30°C° 0.5 mm 5 mps 733 mmHg 66%
    15:00 +32°C° 0.5 mm 5 mps 733 mmHg 59%
    16:00 +32°C° 1.2 mm 5 mps 733 mmHg 60%
    17:00 +30°C° 1.2 mm 5 mps 733 mmHg 61%
    18:00 +29°C° 1.2 mm 5 mps 733 mmHg 63%
    19:00 +29°C° 0 mm 4 mps 733 mmHg 65%
    20:00 +28°C° 0 mm 3 mps 733 mmHg 68%
    21:00 +28°C° 0 mm 1 mps 734 mmHg 70%
    22:00 +28°C° 0 mm 1 mps 734 mmHg 70%
    23:00 +28°C° 0 mm 2 mps 734 mmHg 70%

    Tomorrow, 23 August, Friday

    Time Temperature Precipitation Wind Pressure Humidity
    00:00 +28°C° 0 mm 2 mps 734 mmHg 71%
    01:00 +28°C° 0 mm 2 mps 734 mmHg 71%
    02:00 +28°C° 0 mm 3 mps 733 mmHg 72%
    03:00 +28°C° 0 mm 3 mps 733 mmHg 73%
    04:00 +28°C° 0.2 mm 3 mps 733 mmHg 74%
    05:00 +27°C° 0.2 mm 2 mps 734 mmHg 75%
    06:00 +27°C° 0.2 mm 2 mps 734 mmHg 76%
    07:00 +28°C° 0.3 mm 2 mps 734 mmHg 72%
    08:00 +29°C° 0.3 mm 2 mps 735 mmHg 68%
    09:00 +30°C° 0.3 mm 2 mps 735 mmHg 64%
    10:00 +31°C° 0.1 mm 2 mps 735 mmHg 59%
    11:00 +31°C° 0.1 mm 2 mps 735 mmHg 54%
    12:00 +32°C° 0.1 mm 2 mps 734 mmHg 49%
    13:00 +34°C° 0 mm 2 mps 734 mmHg 48%
    14:00 +34°C° 0 mm 2 mps 733 mmHg 47%
    15:00 +33°C° 0 mm 1 mps 732 mmHg 46%
    16:00 +34°C° 0 mm 2 mps 732 mmHg 49%
    17:00 +33°C° 0 mm 3 mps 732 mmHg 51%
    18:00 +33°C° 0 mm 4 mps 732 mmHg 54%
    19:00 +33°C° 0 mm 4 mps 733 mmHg 56%
    20:00 +31°C° 0 mm 3 mps 733 mmHg 59%
    21:00 +31°C° 0 mm 3 mps 734 mmHg 61%
    22:00 +30°C° 1.6 mm 3 mps 734 mmHg 63%
    23:00 +30°C° 1.6 mm 3 mps 734 mmHg 64%

    Day after tomorrow, 24 August, Saturday

    Time Temperature Precipitation Wind Pressure Humidity
    00:00 +30°C° 1.6 mm 4 mps 734 mmHg 66%
    01:00 +29°C° 1.9 mm 3 mps 733 mmHg 68%
    02:00 +29°C° 1.9 mm 3 mps 733 mmHg 71%
    03:00 +28°C° 1.9 mm 3 mps 733 mmHg 74%
    04:00 +28°C° 1.4 mm 4 mps 733 mmHg 77%
    05:00 +27°C° 1.4 mm 5 mps 733 mmHg 81%
    06:00 +26°C° 1.4 mm 6 mps 733 mmHg 85%
    07:00 +27°C° 0.1 mm 5 mps 734 mmHg 80%
    08:00 +28°C° 0.1 mm 5 mps 734 mmHg 75%
    09:00 +29°C° 0.1 mm 5 mps 735 mmHg 70%
    10:00 +30°C° 0.6 mm 5 mps 735 mmHg 68%
    11:00 +30°C° 0.6 mm 6 mps 734 mmHg 65%
    12:00 +32°C° 0.6 mm 7 mps 734 mmHg 62%
    13:00 +32°C° 0.4 mm 6 mps 734 mmHg 60%
    14:00 +32°C° 0.4 mm 6 mps 733 mmHg 59%
    15:00 +33°C° 0.4 mm 5 mps 733 mmHg 57%
    16:00 +32°C° 0.1 mm 5 mps 733 mmHg 60%
    17:00 +30°C° 0.1 mm 5 mps 733 mmHg 62%
    18:00 +30°C° 0.1 mm 5 mps 733 mmHg 65%
    19:00 +29°C° 0 mm 5 mps 733 mmHg 68%
    20:00 +29°C° 0 mm 5 mps 734 mmHg 70%
    21:00 +29°C° 0 mm 5 mps 735 mmHg 73%
    22:00 +28°C° 0 mm 6 mps 735 mmHg 75%
    23:00 +28°C° 0 mm 6 mps 735 mmHg 77%

    25 August, Sunday

    Time Temperature Precipitation Wind Pressure Humidity
    00:00 +27°C° 0 mm 7 mps 735 mmHg 79%
    01:00 +27°C° 0 mm 7 mps 734 mmHg 79%
    02:00 +27°C° 0 mm 7 mps 734 mmHg 79%
    03:00 +26°C° 0 mm 7 mps 734 mmHg 79%
    04:00 +26°C° 0 mm 7 mps 734 mmHg 80%
    05:00 +26°C° 0 mm 6 mps 734 mmHg 81%
    06:00 +26°C° 0 mm 6 mps 734 mmHg 82%
    07:00 +27°C° 0 mm 6 mps 735 mmHg 77%
    08:00 +28°C° 0 mm 7 mps 735 mmHg 72%
    09:00 +28°C° 0 mm 7 mps 736 mmHg 68%
    10:00 +29°C° 0 mm 7 mps 735 mmHg 65%
    11:00 +30°C° 0 mm 7 mps 735 mmHg 62%
    12:00 +32°C° 0 mm 7 mps 735 mmHg 59%
    13:00 +32°C° 0 mm 7 mps 734 mmHg 58%
    14:00 +32°C° 0 mm 7 mps 734 mmHg 57%
    15:00 +32°C° 0 mm 7 mps 733 mmHg 56%
    16:00 +32°C° 0 mm 6 mps 733 mmHg 58%
    17:00 +30°C° 0 mm 6 mps 733 mmHg 60%
    18:00 +30°C° 0 mm 6 mps 733 mmHg 62%
    19:00 +29°C° 0 mm 6 mps 733 mmHg 65%
    20:00 +29°C° 0 mm 6 mps 734 mmHg 67%
    21:00 +28°C° 0 mm 6 mps 734 mmHg 70%
    22:00 +28°C° 0.5 mm 6 mps 734 mmHg 73%
    23:00 +27°C° 0.5 mm 6 mps 734 mmHg 77%

    26 August, Monday

    Time Temperature Precipitation Wind Pressure Humidity
    00:00 +27°C° 0.5 mm 7 mps 734 mmHg 80%
    01:00 +27°C° 0.1 mm 7 mps 734 mmHg 80%
    02:00 +27°C° 0.1 mm 7 mps 733 mmHg 80%
    03:00 +26°C° 0.1 mm 6 mps 733 mmHg 80%
    04:00 +26°C° 0.1 mm 6 mps 733 mmHg 80%
    05:00 +26°C° 0.1 mm 6 mps 734 mmHg 81%
    06:00 +24°C° 0.1 mm 6 mps 734 mmHg 82%
    07:00 +26°C° 0 mm 7 mps 734 mmHg 79%
    08:00 +27°C° 0 mm 7 mps 734 mmHg 75%
    09:00 +28°C° 0 mm 7 mps 735 mmHg 72%
    10:00 +28°C° 0 mm 8 mps 734 mmHg 69%
    11:00 +29°C° 0 mm 8 mps 734 mmHg 65%
    12:00 +31°C° 0 mm 8 mps 734 mmHg 61%
    13:00 +32°C° 0 mm 7 mps 733 mmHg 59%
    14:00 +32°C° 0 mm 6 mps 733 mmHg 58%
    15:00 +32°C° 0 mm 6 mps 732 mmHg 56%
    16:00 +32°C° 0 mm 5 mps 732 mmHg 57%
    17:00 +32°C° 0 mm 4 mps 732 mmHg 57%
    18:00 +31°C° 0 mm 3 mps 732 mmHg 58%
    19:00 +30°C° 0.4 mm 3 mps 733 mmHg 61%
    20:00 +30°C° 0.4 mm 3 mps 733 mmHg 63%
    21:00 +29°C° 0.4 mm 2 mps 734 mmHg 66%
    22:00 +29°C° 0 mm 2 mps 734 mmHg 68%
    23:00 +29°C° 0 mm 3 mps 734 mmHg 69%

    27 August, Tuesday

    Time Temperature Precipitation Wind Pressure Humidity
    00:00 +28°C° 0 mm 3 mps 734 mmHg 71%
    01:00 +28°C° 0 mm 3 mps 734 mmHg 73%
    02:00 +28°C° 0 mm 3 mps 734 mmHg 75%
    03:00 +27°C° 0 mm 4 mps 733 mmHg 76%
    04:00 +27°C° 0 mm 4 mps 734 mmHg 77%
    05:00 +27°C° 0 mm 4 mps 734 mmHg 78%
    06:00 +27°C° 0 mm 4 mps 734 mmHg 79%
    07:00 +28°C° 0 mm 5 mps 734 mmHg 74%
    08:00 +29°C° 0 mm 5 mps 735 mmHg 69%
    09:00 +30°C° 0 mm 6 mps 735 mmHg 64%
    10:00 +32°C° 0 mm 5 mps 735 mmHg 60%
    11:00 +33°C° 0 mm 5 mps 734 mmHg 56%
    12:00 +34°C° 0 mm 5 mps 734 mmHg 53%
    13:00 +34°C° 0 mm 5 mps 733 mmHg 51%
    14:00 +34°C° 0 mm 4 mps 733 mmHg 50%
    15:00 +35°C° 0 mm 4 mps 732 mmHg 49%
    16:00 +34°C° 0.6 mm 3 mps 732 mmHg 51%
    17:00 +34°C° 0.6 mm 3 mps 732 mmHg 52%
    18:00 +34°C° 0.6 mm 2 mps 732 mmHg 54%
    19:00 +32°C° 0.5 mm 2 mps 733 mmHg 56%
    20:00 +33°C° 0.5 mm 3 mps 733 mmHg 58%
    21:00 +31°C° 0.5 mm 3 mps 734 mmHg 59%
    22:00 +31°C° 0.2 mm 3 mps 734 mmHg 62%
    23:00 +30°C° 0.2 mm 4 mps 734 mmHg 65%
    Show more